www.pogodaiklimat.ru

Погода и климат >> Архив погоды >> Россия >> Чукотка >> Чаун


ПОГОДА в Чауне

  • Прогноз погоды в Чауне
  • Монитор погоды в Чауне
  • Климат города

АРХИВ ПОГОДЫ в Чауне

Время (UTC), дата Ветер
(напр.,м/с)
 
Видим.   Явления Облачность Т
(С)
Тd
(С)
f
(%)
Тe
(С)
Тes
(С)
Комфортность P
(гПа)
Po
(гПа)
Тmin
(С)
Tmax
(С)
R
(мм)
R24
(мм)
S
(см)
21 20.06 СЗ 8-10
{12}
4000 м слабый дождь 10/8 120 м
[Frnb As op]
+2.2 +1.6 96 -5 -5 1003.9 1003.3 +1.6 0.8
00 21.06 СЗ 6
{10}
20 км {дождь} 10/8 120 м
[St Ac und]
+3.0 +2.2 94 -3 -3 1006.3 1005.7
03 21.06 СЗ 3
{8}
20 км 10/6 210 м
[St Ac und]
+4.2 +2.7 90 0 +1 1007.3 1006.7
06 21.06 СЗ 4
{6}
50 км 6/3 200 м
[St Ac trans]
+5.5 +3.3 86 +1 +3 1008.2 1007.6
09 21.06 СЗ 3
{6}
50 км 6/0
[Ac lent]
+4.9 +2.4 84 +1 +2 1009.0 1008.4 +5.6 0.1
12 21.06 С 1
{4}
50 км 6/0
[Ac lent]
+3.4 +2.1 91 +2 +2 1009.6 1009.0
15 21.06 СВ 2
{4}
50 км 6/0
[Ac lent]
+2.2 +1.2 93 -1 -1 1009.6 1009.0
18 21.06 СВ 1
{4}
50 км 6/0
[Ac lent]
+5.5 -0.3 66 +5 +6 1009.7 1009.1
21 21.06 ЮВ 1
{3}
50 км 6/0
[Ac lent]
+10.6 +2.5 57 +11 +15 1009.5 1008.9 +5.4
00 22.06 ЮВ 2
{6}
50 км 6/0
[Ac lent]
+12.9 +3.6 53 +12 +18 1008.5 1007.9
03 22.06 С 6
{7}
50 км 9/0
[Ac trans]
+10.7 +4.0 63 +8 +9 1007.3 1006.7
06 22.06 С 4
{7}
50 км 9/0
[Ac trans]
+12.6 +6.5 66 +11 +12 1006.0 1005.4
09 22.06 ЮВ 5
{8}
50 км 9/0
[Ac trans]
+13.7 +10.6 82 +12 +12 1005.5 1004.9 +15.1
12 22.06 ЮВ 4
{8}
50 км 9/3
[St Ac trans]
+12.1 +9.4 84 +10 +10 1004.7 1004.1
15 22.06 Ю 2
{6}
50 км 9/3
[St Ac trans]
+10.6 +9.4 92 +9 +9 1004.4 1003.8
18 22.06 СЗ 10-12
{12}
4000 м дымка {ливн. осадки} 10/10 500 м
[Sc]
+4.2 +3.5 95 -3 -3 1005.3 1004.7
21 22.06 СЗ 9-12
{14}
4000 м слабый дождь 10/8 120 м
[Frnb As op]
+3.6 +3.1 97 -3 -3 1006.5 1005.9 +3.5 0.4
00 23.06 СЗ 6
{13}
20 км {дождь} 10/6 210 м
[St Ac und]
+5.2 +4.0 92 0 +1 1007.8 1007.2
03 23.06 С 2
{9}
50 км 6/1
[St Ac trans]
+9.3 +4.1 70 +8 +13 1007.7 1007.1
06 23.06 ЮВ 4
{5}
50 км 4/0
[Ac lent]
+13.4 +7.3 67 +12 +14 1006.6 1006.0
09 23.06 ЮВ 5
{8}
50 км 3/0
[Ac lent]
+13.2 +8.6 74 +11 +12 1005.7 1005.1 +13.7 0.1
12 23.06 ЮВ 4
{7}
50 км 6/0
[Ac lent]
+9.7 +8.6 93 +7 +7 1004.6 1004.0
15 23.06 ЮВ 7
{9}
50 км 6/0
[Ac lent]
+9.6 +8.0 90 +6 +6 1002.2 1001.6
18 23.06 Ю 7
{10}
50 км 6/0
[Ac lent]
+11.6 +8.1 79 +8 +9 1000.5 999.9
21 23.06 Ю 7
{9}
50 км 8/0
[Ac lent]
+17.5 +10.2 62 +17 +17 998.4 997.9 +9.3
00 24.06 Ю 7-10
{11}
50 км 9/0
[Ac trans]
+21.3 +8.6 44 +22 +24 комфорт 996.8 996.3
03 24.06 ЮЗ 3
{10}
50 км 9/0
[Ac trans]
+22.1 +9.8 46 +20 +24 995.6 995.1
06 24.06 З 3
{8}
50 км 9/0
[Ac trans]
+19.3 +12.1 63 +21 +22 комфорт 995.5 995.0
09 24.06 СЗ 10-13
{14}
50 км 10/0
[Ac und]
+5.4 +4.2 92 -1 -1 997.4 996.8 +23.2
12 24.06 СЗ 9-12
{14}
4000 м слабый дождь 10/8 120 м
[Frnb As op]
+2.0 +0.9 92 -5 -5 999.1 998.5
15 24.06 З 11-13
{14}
4000 м слабый дождь 10/8 150 м
[Frnb As op]
+1.4 +0.6 94 -7 -7 1001.5 1000.9
18 24.06 СЗ 12-14
{14}
4000 м слабый дождь 10/8 120 м
[Frnb As op]
+1.1 +0.3 94 -7 -7 1004.0 1003.4
21 24.06 СЗ 10-14
{14}
4000 м слабый снег {дождь} 10/8 120 м
[Frnb As op]
+0.2 -0.7 94 -8 -8 1007.6 1007.0 +0.2 3
00 25.06 СЗ 10-15
{15}
20 км {снег, дождь} 10/6 150 м
[St Ac und]
+0.7 -0.1 94 -7 -7 1010.4 1009.8
03 25.06 СЗ 7-10
{15}
20 км 6/4 200 м
[St Ac trans]
+1.5 +0.4 92 -5 -4 1012.1 1011.5
06 25.06 СЗ 9-11
{11}
20 км 6/4 200 м
[St Ac trans]
+1.6 +0.5 92 -6 -6 1012.8 1012.2
09 25.06 СЗ 6
{11}
20 км 8/4 200 м
[St Ac trans]
+1.7 +0.3 90 -5 -4 1014.0 1013.4 +2.0 0.3
12 25.06 СЗ 5
{8}
20 км 9/4 200 м
[St Ac trans]
+1.4 -0.5 87 -4 -4 1013.9 1013.3
15 25.06 СЗ 3
{7}
20 км 6/4 200 м
[St Ac trans]
+1.1 -1.2 85 -3 -3 1013.5 1012.9
18 25.06 З 1
{4}
20 км 6/4 200 м
[St Ac trans]
+2.1 -1.0 80 +1 +2 1013.4 1012.8
21 25.06 З 3
{4}
50 км 8/4 200 м
[St Ac trans]
+3.9 -4.5 54 +1 +3 1012.4 1014.8 +1.0
00 26.06 З 2
{4}
50 км 4/1 200 м
[St Ac lent]
+6.5 -2.9 51 +5 +12 1011.2 1010.6
03 26.06 С 2
{6}
50 км 4/0
[Ac lent]
+7.7 -1.2 53 +6 +12 1009.4 1008.8
06 26.06 В 1
{4}
50 км 3/0
[Ac lent]
+9.6 -1.1 47 +10 +13 1007.7 1007.1
09 26.06 В 2
{4}
50 км 3/0
[Ac lent]
+9.2 -0.7 50 +8 +9 1006.6 1006.0 +9.7
12 26.06 Ю 3
{5}
50 км 3/0
[Ac trans]
+6.8 +1.6 69 +4 +4 1005.8 1005.2
15 26.06 ЮВ 4
{5}
50 км 3/0
[Ac trans]
+5.4 +1.4 75 +2 +2 1005.2 1004.6
18 26.06 ЮВ 5
{6}
50 км ясно +7.3 +1.9 69 +4 +5 1004.5 1003.9
21 26.06 В 3
{7}
50 км ясно +10.7 -0.9 44 +9 +15 1004.5 1003.9 +5.2
00 27.06 СВ 1
{6}
50 км ясно +13.1 -2.5 34 +14 +26 опасность
простуды
1004.3 1003.7
03 27.06 СЗ 6
{8}
50 км ясно +11.8 +0.4 45 +9 +13 1004.4 1003.8
06 27.06 С 8-10
{11}
50 км 4/0
[Ac lent]
+9.8 +1.7 57 +6 +7 1004.7 1004.1
09 27.06 С 4
{10}
50 км 4/0
[Ac lent]
+9.6 +2.5 61 +7 +7 1005.8 1005.2 +13.2
12 27.06 СЗ 2
{4}
50 км 6/0
[Ac lent]
+4.8 +3.1 89 +2 +2 1006.2 1005.6
15 27.06 СЗ 4
{5}
50 км 6/0
[Ac lent]
+4.8 +2.8 87 +1 +1 1006.6 1006.0
18 27.06 СЗ 5
{7}
4000 м дымка 6/0
[Ac lent]
+2.1 +1.6 96 -4 -3 1006.9 1006.3

 

Местоположение метеостанции Чаун (Чукотка, Россия): широта 68.88 долгота 170.70 высота над уровнем моря 5 м.

В архиве по умолчанию представлена погода в Чауне за последнюю неделю. Архивные данные за месяц целиком и за предыдущие месяцы, начиная с января 2011 года, Вы можете получить, выбрав интересующий диапазон дат из раскрывающегося списка и нажав кнопку "Ввод!".

Внимание! Время в таблицах - всемирное. Для получения местного времени необходимо прибавить поправку, которая в Чауне равна 12 ч.

Смотрите также архив погоды в соседних городах и на ближайших метеорологических станциях:

Погода в 21 км (Чукотка, Россия) (84 км)
Погода в Комсомольской (Чукотка, Россия) (89 км)
Погода в Певеке (Чукотка, Россия) (93 км)
Погода в Майской (Чукотка, Россия) (117 км)
Погода в Валькаркае (Чукотка, Россия) (134 км)
Погода в Паляваам-Глубокой (Чукотка, Россия) (137 км)
Погода на Айон Острове (Чукотка, Россия) (160 км)
Погода в Раучуе (Чукотка, Россия) (180 км)
Погода в Билибино (Чукотка, Россия) (198 км)
Погода в Илирнее (Чукотка, Россия) (215 км)

Пояснения к столбцам:

Ветер - указаны скорость ветра в м/с - средняя за 10 мин, порывы в срок и между сроками (в фигурных скобках) и направление, откуда дует ветер: С - северный, СВ - северо-восточный, В - восточный, ЮВ - юго-восточный, Ю - южный, ЮЗ - юго-западный, З - западный, СЗ - северо-западный.
Видимость - горизонтальная дальность видимости в метрах или километрах. При видимости от 1 до 10 км при отсутствии осадков обычно наблюдается дымка, при ухудшении видимости до 1 км и менее - туман. В сухую погоду видимость может ухудшаться дымом, пылью или мглою.
Явления - указаны атмосферные явления, наблюдавшиеся в срок или в последний час перед сроком; фигурными скобками обозначены явления, наблюдавшиеся между сроками (за 1-3 часа до срока); квадратными скобками обозначены град или гололедные отложения с указанием их диаметра в мм.
Облачность - указаны через наклонную черту общая и нижняя облачность в баллах и высота нижней границы облаков в метрах; квадратными скобками обозначены формы облаков: Ci - перистые, Cs - перисто-слоистые, Cc - перисто-кучевые, Ac - высококучевые, As - высокослоистые, Sc - слоисто-кучевые, Ns - слоисто-дождевые, Cu - кучевые, Cb - кучево-дождевые. Подробнее классификацию облаков см. в Атласе облаков (PDF).
T - Температура воздуха - температура, измеренная на высоте 2 м над землей.
Td - Температура точки росы - температура, при понижении до которой содержащийся в воздухе водяной пар достигнет насыщения.
f - Относительная влажность воздуха - влажноcть воздуха, измеренная на высоте 2 м над землей.
Te - Эффективная температура - температура, которую ощущает одетый по сезону человек в тени. Характеристика душности погоды. При расчете учитывается влияние влажности воздуха и скорости ветра на теплоощущения человека.
Tes - Эффективная температура на солнце - температура, которую ощущает человек, с поправкой на солнечный нагрев. Характеристика знойности погоды. Зависит от высоты солнца над горизонтом, облачности и скорости ветра. Ночью, в пасмурную погоду, а также при ветре 12 м/с и более поправка равна нулю.
P - Атмосферное давление - приведенное к уровню моря атмосферное давление.
Po - Атмосферное давление - измеренное на уровне метеостанции атмосферное давление.
Tmin - Минимальная температура - минимум температуры воздуха на высоте 2 м над землей.
Tmax - Максимальная температура - максимум температуры воздуха на высоте 2 м над землей.
R - Количество осадков - Количество выпавших осадков за период времени, мм. При наведении курсора мыши на число - период времени, за который выпало указанное количество осадков.
R24 - Количество осадков - Количество выпавших осадков за 24 часа, мм.
S - Снежный покров - Высота снежного покрова, см. При наведении курсора мыши на число - состояние снежного покрова и степень покрытия местности в баллах.